Time,TemperatureF,DewpointF,PressureIn,WindDirection,WindDirectionDegrees,WindSpeedMPH,WindSpeedGustMPH,Humidity,HourlyPrecipIn,Conditions,Clouds,dailyrainin,SoftwareType,DateUTC
2013-04-08 00:00:00,53.3,42.6,30.08,NE,54,1.0,1.0,67,0.00,,---,0.00,VWS V14.01,2013-04-08 04:00:00,
2013-04-08 00:01:00,53.5,42.8,30.08,NE,56,1.0,1.0,67,0.00,,---,0.00,VWS V14.01,2013-04-08 04:01:00,
2013-04-08 00:02:00,53.6,42.9,30.08,NE,56,2.0,2.0,67,0.00,,---,0.00,VWS V14.01,2013-04-08 04:02:00,
2013-04-08 00:07:00,53.2,42.9,30.08,NE,54,1.0,1.0,68,0.00,,---,0.00,VWS V14.01,2013-04-08 04:07:00,
2013-04-08 00:12:00,53.2,42.5,30.08,NE,54,2.0,2.0,67,0.00,,---,0.00,VWS V14.01,2013-04-08 04:12:00,
2013-04-08 00:17:00,53.0,42.7,30.08,NE,37,0.0,1.0,68,0.00,,---,0.00,VWS V14.01,2013-04-08 04:17:00,
2013-04-08 00:22:00,53.0,42.7,30.08,NNE,33,1.0,1.0,68,0.00,,---,0.00,VWS V14.01,2013-04-08 04:22:00,
2013-04-08 00:27:00,53.3,43.0,30.08,NE,49,1.0,1.0,68,0.00,,---,0.00,VWS V14.01,2013-04-08 04:27:00,
2013-04-08 00:32:00,53.4,42.7,30.08,North,11,0.0,1.0,67,0.00,,---,0.00,VWS V14.01,2013-04-08 04:32:00,
2013-04-08 00:37:00,53.5,42.8,30.08,NE,43,0.0,0.0,67,0.00,,---,0.00,VWS V14.01,2013-04-08 04:37:00,
2013-04-08 00:42:00,53.5,42.8,30.08,NE,43,1.0,1.0,67,0.00,,---,0.00,VWS V14.01,2013-04-08 04:42:00,
2013-04-08 00:47:00,53.4,42.7,30.08,NE,51,1.0,1.0,67,0.00,,---,0.00,VWS V14.01,2013-04-08 04:47:00,
2013-04-08 00:52:00,53.7,43.0,30.08,NE,51,2.0,2.0,67,0.00,,---,0.00,VWS V14.01,2013-04-08 04:52:00,
2013-04-08 00:57:00,53.7,43.0,30.08,NE,51,1.0,2.0,67,0.00,,---,0.00,VWS V14.01,2013-04-08 04:57:00,
2013-04-08 01:02:00,53.7,43.0,30.08,NE,51,1.0,1.0,67,0.00,,---,0.00,VWS V14.01,2013-04-08 05:02:00,
2013-04-08 01:07:00,53.7,43.0,30.08,NE,51,1.0,2.0,67,0.00,,---,0.00,VWS V14.01,2013-04-08 05:07:00,
2013-04-08 01:12:00,53.7,43.0,30.08,NE,51,1.0,1.0,67,0.00,,---,0.00,VWS V14.01,2013-04-08 05:12:00,
2013-04-08 01:17:00,53.6,42.9,30.08,NE,56,2.0,2.0,67,0.00,,---,0.00,VWS V14.01,2013-04-08 05:17:00,
2013-04-08 01:22:00,53.9,43.2,30.08,ENE,60,1.0,1.0,67,0.00,,---,0.00,VWS V14.01,2013-04-08 05:22:00,
2013-04-08 01:27:00,53.9,42.8,30.08,ENE,63,2.0,2.0,66,0.00,,---,0.00,VWS V14.01,2013-04-08 05:27:00,
2013-04-08 01:32:00,53.7,43.0,30.08,NE,51,0.0,0.0,67,0.00,,---,0.00,VWS V14.01,2013-04-08 05:32:00,
2013-04-08 01:37:00,53.8,43.1,30.08,NE,51,1.0,1.0,67,0.00,,---,0.00,VWS V14.01,2013-04-08 05:37:00,
2013-04-08 01:42:00,53.9,43.2,30.08,NE,51,0.0,0.0,67,0.00,,---,0.00,VWS V14.01,2013-04-08 05:42:00,
2013-04-08 01:47:00,53.7,43.4,30.08,NE,51,1.0,1.0,68,0.00,,---,0.00,VWS V14.01,2013-04-08 05:47:00,
2013-04-08 01:52:00,53.7,43.4,30.08,NE,51,1.0,1.0,68,0.00,,---,0.00,VWS V14.01,2013-04-08 05:52:00,
2013-04-08 01:57:00,53.9,43.6,30.08,NE,51,1.0,1.0,68,0.00,,---,0.00,VWS V14.01,2013-04-08 05:57:00,
2013-04-08 02:02:00,53.8,43.5,30.07,NE,51,1.0,1.0,68,0.00,,---,0.00,VWS V14.01,2013-04-08 06:02:00,
2013-04-08 02:07:00,53.8,43.9,30.07,NE,46,2.0,2.0,69,0.00,,---,0.00,VWS V14.01,2013-04-08 06:07:00,
2013-04-08 02:12:00,53.8,43.1,30.07,NE,46,1.0,1.0,67,0.00,,---,0.00,VWS V14.01,2013-04-08 06:12:00,
2013-04-08 02:17:00,54.1,43.4,30.07,NE,46,1.0,1.0,67,0.00,,---,0.00,VWS V14.01,2013-04-08 06:17:00,
2013-04-08 02:22:00,53.9,43.6,30.07,NE,46,1.0,1.0,68,0.00,,---,0.00,VWS V14.01,2013-04-08 06:22:00,
2013-04-08 02:27:00,53.7,43.4,30.07,NE,46,1.0,1.0,68,0.00,,---,0.00,VWS V14.01,2013-04-08 06:27:00,
2013-04-08 02:32:00,53.2,43.7,30.07,NE,46,1.0,1.0,70,0.00,,---,0.00,VWS V14.01,2013-04-08 06:32:00,
2013-04-08 02:37:00,53.1,43.6,30.07,NE,46,1.0,1.0,70,0.00,,---,0.00,VWS V14.01,2013-04-08 06:37:00,
2013-04-08 02:42:00,53.1,43.6,30.06,NE,47,1.0,2.0,70,0.00,,---,0.00,VWS V14.01,2013-04-08 06:42:00,
2013-04-08 02:47:00,53.0,43.5,30.06,NE,46,1.0,1.0,70,0.00,,---,0.00,VWS V14.01,2013-04-08 06:47:00,
2013-04-08 02:52:00,52.8,43.3,30.06,NNE,25,1.0,1.0,70,0.00,,---,0.00,VWS V14.01,2013-04-08 06:52:00,
2013-04-08 02:57:00,53.0,43.9,30.06,ENE,57,1.0,2.0,71,0.00,,---,0.00,VWS V14.01,2013-04-08 06:57:00,
2013-04-08 03:02:00,53.1,43.6,30.06,NE,56,1.0,1.0,70,0.00,,---,0.00,VWS V14.01,2013-04-08 07:02:00,
2013-04-08 03:07:00,53.1,44.0,30.06,NE,56,1.0,2.0,71,0.00,,---,0.00,VWS V14.01,2013-04-08 07:07:00,
2013-04-08 03:12:00,53.1,44.0,30.06,NNE,22,1.0,3.0,71,0.00,,---,0.00,VWS V14.01,2013-04-08 07:12:00,
2013-04-08 03:17:00,52.9,43.8,30.06,NE,47,0.0,2.0,71,0.00,,---,0.00,VWS V14.01,2013-04-08 07:17:00,
2013-04-08 03:22:00,53.1,44.0,30.06,NE,48,1.0,1.0,71,0.00,,---,0.00,VWS V14.01,2013-04-08 07:22:00,
2013-04-08 03:27:00,53.0,43.9,30.05,NE,49,1.0,1.0,71,0.00,,---,0.00,VWS V14.01,2013-04-08 07:27:00,
2013-04-08 03:32:00,52.8,43.7,30.06,NE,49,1.0,2.0,71,0.00,,---,0.00,VWS V14.01,2013-04-08 07:32:00,
2013-04-08 03:37:00,52.9,43.8,30.05,NE,49,1.0,1.0,71,0.00,,---,0.00,VWS V14.01,2013-04-08 07:37:00,
2013-04-08 03:42:00,52.9,43.8,30.06,NE,49,1.0,1.0,71,0.00,,---,0.00,VWS V14.01,2013-04-08 07:42:00,
2013-04-08 03:47:00,52.9,43.4,30.05,NE,48,1.0,1.0,70,0.00,,---,0.00,VWS V14.01,2013-04-08 07:47:00,
2013-04-08 03:52:00,53.2,43.7,30.05,NE,48,1.0,1.0,70,0.00,,---,0.00,VWS V14.01,2013-04-08 07:52:00,
2013-04-08 03:57:00,53.2,43.7,30.06,NE,49,1.0,1.0,70,0.00,,---,0.00,VWS V14.01,2013-04-08 07:57:00,
2013-04-08 04:02:00,53.0,43.5,30.06,ENE,78,0.0,1.0,70,0.00,,---,0.00,VWS V14.01,2013-04-08 08:02:00,
2013-04-08 04:07:00,53.0,43.5,30.06,ENE,72,1.0,2.0,70,0.00,,---,0.00,VWS V14.01,2013-04-08 08:07:00,
2013-04-08 04:12:00,52.8,43.7,30.06,ENE,74,2.0,2.0,71,0.00,,---,0.00,VWS V14.01,2013-04-08 08:12:00,
2013-04-08 04:17:00,52.8,43.7,30.06,ENE,72,2.0,2.0,71,0.00,,---,0.00,VWS V14.01,2013-04-08 08:17:00,
2013-04-08 04:22:00,52.8,43.7,30.06,NE,49,0.0,0.0,71,0.00,,---,0.00,VWS V14.01,2013-04-08 08:22:00,
2013-04-08 04:27:00,52.8,43.7,30.06,NE,48,1.0,2.0,71,0.00,,---,0.00,VWS V14.01,2013-04-08 08:27:00,
2013-04-08 04:32:00,52.6,43.5,30.06,NE,49,0.0,1.0,71,0.00,,---,0.00,VWS V14.01,2013-04-08 08:32:00,
2013-04-08 04:37:00,52.7,43.6,30.06,NE,49,1.0,1.0,71,0.00,,---,0.00,VWS V14.01,2013-04-08 08:37:00,
2013-04-08 04:42:00,52.4,43.7,30.06,NE,46,1.0,1.0,72,0.00,,---,0.00,VWS V14.01,2013-04-08 08:42:00,
2013-04-08 04:47:00,52.4,43.7,30.06,NE,49,1.0,1.0,72,0.00,,---,0.00,VWS V14.01,2013-04-08 08:47:00,
2013-04-08 04:52:00,52.4,43.7,30.06,NE,48,0.0,0.0,72,0.00,,---,0.00,VWS V14.01,2013-04-08 08:52:00,
2013-04-08 04:57:00,52.3,43.9,30.06,NE,49,0.0,0.0,73,0.00,,---,0.00,VWS V14.01,2013-04-08 08:57:00,
2013-04-08 05:02:00,52.2,43.8,30.06,NE,49,1.0,1.0,73,0.00,,---,0.00,VWS V14.01,2013-04-08 09:02:00,
2013-04-08 05:08:00,52.1,43.7,30.06,NE,49,1.0,1.0,73,0.00,,---,0.00,VWS V14.01,2013-04-08 09:08:00,
2013-04-08 05:13:00,52.1,43.7,30.06,NE,49,1.0,1.0,73,0.00,,---,0.00,VWS V14.01,2013-04-08 09:13:00,
2013-04-08 05:18:00,52.5,44.1,30.06,NE,49,1.0,1.0,73,0.00,,---,0.00,VWS V14.01,2013-04-08 09:18:00,
2013-04-08 05:23:00,52.2,43.8,30.06,NE,49,0.0,1.0,73,0.00,,---,0.00,VWS V14.01,2013-04-08 09:23:00,
2013-04-08 05:28:00,52.2,43.8,30.06,NE,49,0.0,0.0,73,0.00,,---,0.00,VWS V14.01,2013-04-08 09:28:00,
2013-04-08 05:33:00,51.9,43.9,30.06,NE,47,1.0,1.0,74,0.00,,---,0.00,VWS V14.01,2013-04-08 09:33:00,
2013-04-08 05:38:00,52.2,43.8,30.06,NE,47,1.0,1.0,73,0.00,,---,0.00,VWS V14.01,2013-04-08 09:38:00,
2013-04-08 05:43:00,52.4,44.0,30.06,NE,47,1.0,1.0,73,0.00,,---,0.00,VWS V14.01,2013-04-08 09:43:00,
2013-04-08 05:48:00,52.2,43.8,30.06,NE,47,0.0,0.0,73,0.00,,---,0.00,VWS V14.01,2013-04-08 09:48:00,
2013-04-08 05:53:00,52.1,44.1,30.06,NE,47,1.0,1.0,74,0.00,,---,0.00,VWS V14.01,2013-04-08 09:53:00,
2013-04-08 05:58:00,52.2,43.8,30.06,NE,47,1.0,1.0,73,0.00,,---,0.00,VWS V14.01,2013-04-08 09:58:00,
2013-04-08 06:03:00,52.2,43.8,30.06,NE,47,1.0,1.0,73,0.00,,---,0.00,VWS V14.01,2013-04-08 10:03:00,
2013-04-08 06:08:00,52.1,43.7,30.06,NE,47,1.0,1.0,73,0.00,,---,0.00,VWS V14.01,2013-04-08 10:08:00,
2013-04-08 06:13:00,51.9,43.9,30.06,NE,47,1.0,1.0,74,0.00,,---,0.00,VWS V14.01,2013-04-08 10:13:00,
2013-04-08 06:18:00,51.9,43.9,30.06,NE,47,1.0,1.0,74,0.00,,---,0.00,VWS V14.01,2013-04-08 10:18:00,
2013-04-08 06:23:00,52.0,44.0,30.07,NE,47,2.0,2.0,74,0.00,,---,0.00,VWS V14.01,2013-04-08 10:23:00,
2013-04-08 06:28:00,52.0,44.0,30.07,NE,47,1.0,1.0,74,0.00,,---,0.00,VWS V14.01,2013-04-08 10:28:00,
2013-04-08 06:33:00,52.2,44.2,30.07,NE,47,0.0,0.0,74,0.00,,---,0.00,VWS V14.01,2013-04-08 10:33:00,
2013-04-08 06:38:00,52.3,44.3,30.07,NE,47,0.0,1.0,74,0.00,,---,0.00,VWS V14.01,2013-04-08 10:38:00,
2013-04-08 06:43:00,52.6,44.6,30.07,NE,46,1.0,1.0,74,0.00,,---,0.00,VWS V14.01,2013-04-08 10:43:00,
2013-04-08 06:48:00,52.5,44.5,30.07,NE,47,0.0,0.0,74,0.00,,---,0.00,VWS V14.01,2013-04-08 10:48:00,
2013-04-08 06:53:00,52.4,44.4,30.07,NE,47,1.0,1.0,74,0.00,,---,0.00,VWS V14.01,2013-04-08 10:53:00,
2013-04-08 06:58:00,52.5,44.5,30.08,NNE,26,0.0,1.0,74,0.00,,---,0.00,VWS V14.01,2013-04-08 10:58:00,
2013-04-08 07:03:00,52.5,44.1,30.08,ENE,68,0.0,1.0,73,0.00,,---,0.00,VWS V14.01,2013-04-08 11:03:00,
2013-04-08 07:08:00,52.4,44.4,30.08,ENE,65,0.0,1.0,74,0.00,,---,0.00,VWS V14.01,2013-04-08 11:08:00,
2013-04-08 07:13:00,52.4,44.4,30.08,ENE,65,1.0,2.0,74,0.00,,---,0.00,VWS V14.01,2013-04-08 11:13:00,
2013-04-08 07:18:00,52.4,44.4,30.08,ENE,65,1.0,1.0,74,0.00,,---,0.00,VWS V14.01,2013-04-08 11:18:00,
2013-04-08 07:23:00,52.4,44.4,30.09,ENE,65,2.0,2.0,74,0.00,,---,0.00,VWS V14.01,2013-04-08 11:23:00,
2013-04-08 07:28:00,52.4,44.4,30.09,ENE,64,1.0,2.0,74,0.00,,---,0.00,VWS V14.01,2013-04-08 11:28:00,
2013-04-08 07:33:00,52.0,44.3,30.09,ENE,64,1.0,1.0,75,0.00,,---,0.00,VWS V14.01,2013-04-08 11:33:00,
2013-04-08 07:38:00,52.2,44.5,30.09,ENE,64,1.0,2.0,75,0.00,,---,0.00,VWS V14.01,2013-04-08 11:38:00,
2013-04-08 07:43:00,52.5,44.8,30.10,ENE,64,1.0,1.0,75,0.00,,---,0.00,VWS V14.01,2013-04-08 11:43:00,
2013-04-08 07:48:00,52.8,44.8,30.10,ENE,64,0.0,1.0,74,0.00,,---,0.00,VWS V14.01,2013-04-08 11:48:00,
2013-04-08 07:53:00,53.2,44.8,30.10,ENE,64,1.0,1.0,73,0.00,,---,0.00,VWS V14.01,2013-04-08 11:53:00,
2013-04-08 07:58:00,53.5,45.1,30.10,ENE,65,1.0,1.0,73,0.00,,---,0.00,VWS V14.01,2013-04-08 11:58:00,
2013-04-08 08:03:00,53.7,45.3,30.10,ENE,65,1.0,1.0,73,0.00,,---,0.00,VWS V14.01,2013-04-08 12:03:00,
2013-04-08 08:08:00,53.9,45.1,30.10,ENE,64,1.0,1.0,72,0.00,,---,0.00,VWS V14.01,2013-04-08 12:08:00,
2013-04-08 08:13:00,54.1,45.3,30.10,ENE,58,1.0,2.0,72,0.00,,---,0.00,VWS V14.01,2013-04-08 12:13:00,
2013-04-08 08:18:00,54.0,45.2,30.10,NE,46,0.0,0.0,72,0.00,,---,0.00,VWS V14.01,2013-04-08 12:18:00,
2013-04-08 08:23:00,54.1,45.3,30.10,NE,46,1.0,1.0,72,0.00,,---,0.00,VWS V14.01,2013-04-08 12:23:00,
2013-04-08 08:28:00,53.8,45.0,30.10,NE,56,1.0,1.0,72,0.00,,---,0.00,VWS V14.01,2013-04-08 12:28:00,
2013-04-08 08:33:00,54.2,45.0,30.10,NE,36,0.0,1.0,71,0.00,,---,0.00,VWS V14.01,2013-04-08 12:33:00,
2013-04-08 08:38:00,54.1,45.3,30.10,NE,37,1.0,1.0,72,0.00,,---,0.00,VWS V14.01,2013-04-08 12:38:00,
2013-04-08 08:43:00,54.0,45.5,30.10,NE,53,0.0,1.0,73,0.00,,---,0.00,VWS V14.01,2013-04-08 12:43:00,
2013-04-08 08:48:00,54.2,45.0,30.10,ENE,71,0.0,0.0,71,0.00,,---,0.00,VWS V14.01,2013-04-08 12:48:00,
2013-04-08 08:53:00,54.7,45.5,30.10,NNE,27,1.0,1.0,71,0.00,,---,0.00,VWS V14.01,2013-04-08 12:53:00,
2013-04-08 08:58:00,54.5,45.7,30.10,NNE,32,1.0,1.0,72,0.00,,---,0.00,VWS V14.01,2013-04-08 12:58:00,
2013-04-08 09:03:00,54.6,45.8,30.10,NNE,32,0.0,1.0,72,0.00,,---,0.00,VWS V14.01,2013-04-08 13:03:00,
2013-04-08 09:08:00,54.9,46.1,30.10,NE,50,0.0,1.0,72,0.00,,---,0.00,VWS V14.01,2013-04-08 13:08:00,
2013-04-08 09:13:00,55.1,45.9,30.10,NE,50,1.0,1.0,71,0.00,,---,0.00,VWS V14.01,2013-04-08 13:13:00,
2013-04-08 09:18:00,55.3,46.1,30.10,NE,50,1.0,1.0,71,0.00,,---,0.00,VWS V14.01,2013-04-08 13:18:00,
2013-04-08 09:23:00,55.7,46.1,30.10,NE,50,0.0,0.0,70,0.00,,---,0.00,VWS V14.01,2013-04-08 13:23:00,
2013-04-08 09:28:00,56.3,46.7,30.10,NE,50,1.0,1.0,70,0.00,,---,0.00,VWS V14.01,2013-04-08 13:28:00,
2013-04-08 09:33:00,56.6,46.2,30.10,ESE,103,0.0,0.0,68,0.00,,---,0.00,VWS V14.01,2013-04-08 13:33:00,
2013-04-08 09:38:00,57.0,46.2,30.10,ESE,103,0.0,0.0,67,0.00,,---,0.00,VWS V14.01,2013-04-08 13:38:00,
2013-04-08 09:43:00,57.7,46.4,30.10,North,4,1.0,1.0,66,0.00,,---,0.00,VWS V14.01,2013-04-08 13:43:00,
2013-04-08 09:48:00,57.9,47.0,30.10,NE,49,0.0,0.0,67,0.00,,---,0.00,VWS V14.01,2013-04-08 13:48:00,
2013-04-08 09:53:00,58.0,47.1,30.10,NE,49,0.0,1.0,67,0.00,,---,0.00,VWS V14.01,2013-04-08 13:53:00,
2013-04-08 09:58:00,58.2,46.5,30.10,SE,136,0.0,0.0,65,0.00,,---,0.00,VWS V14.01,2013-04-08 13:58:00,
2013-04-08 10:03:00,58.8,47.5,30.09,NW,319,0.0,0.0,66,0.00,,---,0.00,VWS V14.01,2013-04-08 14:03:00,
2013-04-08 10:08:00,59.4,46.8,30.09,ESE,108,0.0,2.0,63,0.00,,---,0.00,VWS V14.01,2013-04-08 14:08:00,
2013-04-08 10:13:00,60.4,47.3,30.09,West,278,3.0,3.0,62,0.00,,---,0.00,VWS V14.01,2013-04-08 14:13:00,
2013-04-08 10:18:00,61.2,47.7,30.09,WNW,302,4.0,5.0,61,0.00,,---,0.00,VWS V14.01,2013-04-08 14:18:00,
2013-04-08 10:23:00,61.6,47.2,30.08,West,274,1.0,3.0,59,0.00,,---,0.00,VWS V14.01,2013-04-08 14:23:00,
2013-04-08 10:28:00,61.8,47.3,30.09,WNW,302,2.0,3.0,59,0.00,,---,0.00,VWS V14.01,2013-04-08 14:28:00,
2013-04-08 10:33:00,62.1,47.6,30.09,WNW,292,3.0,5.0,59,0.00,,---,0.00,VWS V14.01,2013-04-08 14:33:00,
2013-04-08 10:38:00,62.4,47.5,30.09,SE,140,0.0,1.0,58,0.00,,---,0.00,VWS V14.01,2013-04-08 14:38:00,
2013-04-08 10:43:00,62.8,47.4,30.09,WSW,238,2.0,4.0,57,0.00,,---,0.00,VWS V14.01,2013-04-08 14:43:00,
2013-04-08 10:48:00,63.2,47.3,30.09,NW,323,1.0,2.0,56,0.00,,---,0.00,VWS V14.01,2013-04-08 14:48:00,
2013-04-08 10:53:00,63.3,47.3,30.09,West,263,0.0,3.0,56,0.00,,---,0.00,VWS V14.01,2013-04-08 14:53:00,
2013-04-08 10:58:00,63.9,47.4,30.09,East,94,1.0,2.0,55,0.00,,---,0.00,VWS V14.01,2013-04-08 14:58:00,
2013-04-08 11:03:00,64.3,47.3,30.09,West,278,3.0,4.0,54,0.00,,---,0.00,VWS V14.01,2013-04-08 15:03:00,
2013-04-08 11:08:00,64.2,47.7,30.08,West,276,2.0,4.0,55,0.00,,---,0.00,VWS V14.01,2013-04-08 15:08:00,
2013-04-08 11:13:00,64.3,47.3,30.08,WNW,302,3.0,4.0,54,0.00,,---,0.00,VWS V14.01,2013-04-08 15:13:00,
2013-04-08 11:18:00,64.4,47.4,30.08,NE,43,1.0,3.0,54,0.00,,---,0.00,VWS V14.01,2013-04-08 15:18:00,
2013-04-08 11:23:00,64.8,47.8,30.08,WSW,253,1.0,4.0,54,0.00,,---,0.00,VWS V14.01,2013-04-08 15:23:00,
2013-04-08 11:28:00,65.4,47.8,30.08,SSW,207,2.0,3.0,53,0.00,,---,0.00,VWS V14.01,2013-04-08 15:28:00,
2013-04-08 11:33:00,66.1,48.5,30.09,WNW,298,6.0,8.0,53,0.00,,---,0.00,VWS V14.01,2013-04-08 15:33:00,
2013-04-08 11:38:00,66.0,46.8,30.10,WSW,248,1.0,5.0,50,0.00,,---,0.00,VWS V14.01,2013-04-08 15:38:00,
2013-04-08 11:43:00,65.5,47.4,30.09,ESE,113,1.0,2.0,52,0.00,,---,0.00,VWS V14.01,2013-04-08 15:43:00,
2013-04-08 11:48:00,65.5,46.9,30.09,SSE,153,3.0,4.0,51,0.00,,---,0.00,VWS V14.01,2013-04-08 15:48:00,
2013-04-08 11:53:00,66.1,47.5,30.09,WNW,295,2.0,4.0,51,0.00,,---,0.00,VWS V14.01,2013-04-08 15:53:00,
2013-04-08 11:58:00,66.8,48.1,30.09,WSW,243,2.0,4.0,51,0.00,,---,0.00,VWS V14.01,2013-04-08 15:58:00,
2013-04-08 12:03:00,66.9,47.7,30.08,West,264,1.0,2.0,50,0.00,,---,0.00,VWS V14.01,2013-04-08 16:03:00,
2013-04-08 12:08:00,67.2,47.4,30.08,ENE,65,1.0,4.0,49,0.00,,---,0.00,VWS V14.01,2013-04-08 16:08:00,
2013-04-08 12:13:00,67.6,47.2,30.08,WNW,285,3.0,7.0,48,0.00,,---,0.00,VWS V14.01,2013-04-08 16:13:00,
2013-04-08 12:18:00,68.0,47.6,30.07,SSW,208,2.0,3.0,48,0.00,,---,0.00,VWS V14.01,2013-04-08 16:18:00,
2013-04-08 12:23:00,67.9,48.1,30.07,South,191,1.0,2.0,49,0.00,,---,0.00,VWS V14.01,2013-04-08 16:23:00,
2013-04-08 12:28:00,68.1,48.8,30.07,West,267,5.0,5.0,50,0.00,,---,0.00,VWS V14.01,2013-04-08 16:28:00,
2013-04-08 12:33:00,67.9,48.6,30.07,WNW,302,5.0,5.0,50,0.00,,---,0.00,VWS V14.01,2013-04-08 16:33:00,
2013-04-08 12:38:00,67.9,48.6,30.07,WSW,248,3.0,5.0,50,0.00,,---,0.00,VWS V14.01,2013-04-08 16:38:00,
2013-04-08 12:43:00,68.6,49.2,30.07,SSE,167,6.0,6.0,50,0.00,,---,0.00,VWS V14.01,2013-04-08 16:43:00,
2013-04-08 12:48:00,69.1,49.2,30.07,SE,136,3.0,3.0,49,0.00,,---,0.00,VWS V14.01,2013-04-08 16:48:00,
2013-04-08 12:53:00,69.4,48.3,30.07,SSE,159,2.0,2.0,47,0.00,,---,0.00,VWS V14.01,2013-04-08 16:53:00,
2013-04-08 12:58:00,68.7,47.7,30.07,WSW,255,2.0,2.0,47,0.00,,---,0.00,VWS V14.01,2013-04-08 16:58:00,
2013-04-08 13:03:00,68.6,48.2,30.06,WNW,299,1.0,3.0,48,0.00,,---,0.00,VWS V14.01,2013-04-08 17:03:00,
2013-04-08 13:08:00,68.4,48.5,30.06,WSW,256,1.0,1.0,49,0.00,,---,0.00,VWS V14.01,2013-04-08 17:08:00,
2013-04-08 13:13:00,69.2,47.6,30.06,WNW,293,5.0,8.0,46,0.00,,---,0.00,VWS V14.01,2013-04-08 17:13:00,
2013-04-08 13:18:00,69.0,48.0,30.06,WNW,299,3.0,3.0,47,0.00,,---,0.00,VWS V14.01,2013-04-08 17:18:00,
2013-04-08 13:23:00,69.1,48.6,30.06,West,263,6.0,6.0,48,0.00,,---,0.00,VWS V14.01,2013-04-08 17:23:00,
2013-04-08 13:28:00,69.2,48.7,30.05,NW,324,6.0,8.0,48,0.00,,---,0.00,VWS V14.01,2013-04-08 17:28:00,
2013-04-08 13:33:00,69.6,49.1,30.05,West,276,4.0,4.0,48,0.00,,---,0.00,VWS V14.01,2013-04-08 17:33:00,
2013-04-08 13:38:00,69.6,47.9,30.05,WNW,302,1.0,2.0,46,0.00,,---,0.00,VWS V14.01,2013-04-08 17:38:00,
2013-04-08 13:43:00,70.1,48.4,30.05,WNW,302,5.0,6.0,46,0.00,,---,0.00,VWS V14.01,2013-04-08 17:43:00,
2013-04-08 13:48:00,70.6,48.2,30.04,West,263,3.0,5.0,45,0.00,,---,0.00,VWS V14.01,2013-04-08 17:48:00,
2013-04-08 13:53:00,70.8,47.2,30.04,NW,306,4.0,10.0,43,0.00,,---,0.00,VWS V14.01,2013-04-08 17:53:00,
2013-04-08 13:58:00,70.3,47.4,30.04,NW,305,5.0,6.0,44,0.00,,---,0.00,VWS V14.01,2013-04-08 17:58:00,
2013-04-08 14:03:00,69.4,47.2,30.04,NW,308,7.0,7.0,45,0.00,,---,0.00,VWS V14.01,2013-04-08 18:03:00,
2013-04-08 14:08:00,68.9,47.3,30.04,West,277,3.0,3.0,46,0.00,,---,0.00,VWS V14.01,2013-04-08 18:08:00,
2013-04-08 14:13:00,69.1,48.0,30.04,SW,233,0.0,4.0,47,0.00,,---,0.00,VWS V14.01,2013-04-08 18:13:00,
2013-04-08 14:18:00,69.8,47.5,30.04,WNW,290,2.0,5.0,45,0.00,,---,0.00,VWS V14.01,2013-04-08 18:18:00,
2013-04-08 14:23:00,69.5,47.8,30.04,NE,51,4.0,6.0,46,0.00,,---,0.00,VWS V14.01,2013-04-08 18:23:00,
2013-04-08 14:28:00,69.6,48.5,30.03,NW,304,6.0,6.0,47,0.00,,---,0.00,VWS V14.01,2013-04-08 18:28:00,
2013-04-08 14:33:00,70.0,48.3,30.03,SW,219,3.0,8.0,46,0.00,,---,0.00,VWS V14.01,2013-04-08 18:33:00,
2013-04-08 14:38:00,69.8,47.5,30.03,West,270,4.0,7.0,45,0.00,,---,0.00,VWS V14.01,2013-04-08 18:38:00,
2013-04-08 14:43:00,69.4,47.7,30.03,WNW,295,1.0,3.0,46,0.00,,---,0.00,VWS V14.01,2013-04-08 18:43:00,
2013-04-08 14:48:00,68.9,47.3,30.03,WNW,293,6.0,7.0,46,0.00,,---,0.00,VWS V14.01,2013-04-08 18:48:00,
2013-04-08 14:53:00,68.5,47.5,30.03,West,281,3.0,6.0,47,0.00,,---,0.00,VWS V14.01,2013-04-08 18:53:00,
2013-04-08 14:58:00,68.5,48.1,30.03,NW,314,7.0,7.0,48,0.00,,---,0.00,VWS V14.01,2013-04-08 18:58:00,
2013-04-08 15:03:00,69.3,48.2,30.03,NW,305,2.0,5.0,47,0.00,,---,0.00,VWS V14.01,2013-04-08 19:03:00,
2013-04-08 15:08:00,70.6,48.8,30.02,West,281,8.0,8.0,46,0.00,,---,0.00,VWS V14.01,2013-04-08 19:08:00,
2013-04-08 15:13:00,71.2,48.8,30.02,West,280,6.0,6.0,45,0.00,,---,0.00,VWS V14.01,2013-04-08 19:13:00,
2013-04-08 15:18:00,71.4,48.4,30.02,West,262,8.0,10.0,44,0.00,,---,0.00,VWS V14.01,2013-04-08 19:18:00,
2013-04-08 15:24:00,71.6,48.6,30.02,West,275,2.0,7.0,44,0.00,,---,0.00,VWS V14.01,2013-04-08 19:24:00,
2013-04-08 15:29:00,71.4,48.4,30.01,West,278,1.0,1.0,44,0.00,,---,0.00,VWS V14.01,2013-04-08 19:29:00,
2013-04-08 15:34:00,71.5,48.5,30.01,WNW,296,6.0,6.0,44,0.00,,---,0.00,VWS V14.01,2013-04-08 19:34:00,
2013-04-08 15:39:00,72.0,48.9,30.01,West,277,3.0,6.0,44,0.00,,---,0.00,VWS V14.01,2013-04-08 19:39:00,
2013-04-08 15:44:00,72.0,48.9,30.01,NW,325,2.0,4.0,44,0.00,,---,0.00,VWS V14.01,2013-04-08 19:44:00,
2013-04-08 15:49:00,71.6,48.6,30.01,West,259,3.0,4.0,44,0.00,,---,0.00,VWS V14.01,2013-04-08 19:49:00,
2013-04-08 15:54:00,72.3,49.8,30.01,WNW,290,4.0,6.0,45,0.00,,---,0.00,VWS V14.01,2013-04-08 19:54:00,
2013-04-08 15:59:00,72.5,49.4,30.01,WSW,255,3.0,4.0,44,0.00,,---,0.00,VWS V14.01,2013-04-08 19:59:00,
2013-04-08 16:04:00,72.9,49.7,30.01,WNW,288,9.0,10.0,44,0.00,,---,0.00,VWS V14.01,2013-04-08 20:04:00,
2013-04-08 16:09:00,72.7,48.9,30.01,SW,235,2.0,9.0,43,0.00,,---,0.00,VWS V14.01,2013-04-08 20:09:00,
2013-04-08 16:14:00,72.3,49.2,30.01,WNW,284,6.0,10.0,44,0.00,,---,0.00,VWS V14.01,2013-04-08 20:14:00,
2013-04-08 16:19:00,72.3,49.2,30.01,WNW,283,3.0,9.0,44,0.00,,---,0.00,VWS V14.01,2013-04-08 20:19:00,
2013-04-08 16:24:00,72.2,49.7,30.01,NW,306,5.0,6.0,45,0.00,,---,0.00,VWS V14.01,2013-04-08 20:24:00,
2013-04-08 16:29:00,71.6,49.8,30.01,NW,320,6.0,6.0,46,0.00,,---,0.00,VWS V14.01,2013-04-08 20:29:00,
2013-04-08 16:34:00,72.2,49.7,30.01,NW,312,5.0,5.0,45,0.00,,---,0.00,VWS V14.01,2013-04-08 20:34:00,
2013-04-08 16:39:00,72.1,49.6,30.00,WSW,245,7.0,7.0,45,0.00,,---,0.00,VWS V14.01,2013-04-08 20:39:00,
2013-04-08 16:44:00,72.1,49.0,30.00,WSW,242,5.0,8.0,44,0.00,,---,0.00,VWS V14.01,2013-04-08 20:44:00,
2013-04-08 16:49:00,72.1,49.6,30.00,WNW,287,4.0,4.0,45,0.00,,---,0.00,VWS V14.01,2013-04-08 20:49:00,
2013-04-08 16:54:00,72.1,49.6,30.00,West,281,6.0,7.0,45,0.00,,---,0.00,VWS V14.01,2013-04-08 20:54:00,
2013-04-08 16:59:00,72.3,49.2,30.00,NNE,30,3.0,3.0,44,0.00,,---,0.00,VWS V14.01,2013-04-08 20:59:00,
2013-04-08 17:04:00,72.4,48.7,30.00,WNW,298,2.0,3.0,43,0.00,,---,0.00,VWS V14.01,2013-04-08 21:04:00,
2013-04-08 17:09:00,72.2,49.1,30.00,WNW,289,2.0,2.0,44,0.00,,---,0.00,VWS V14.01,2013-04-08 21:09:00,
2013-04-08 17:14:00,72.3,49.2,30.00,NW,312,5.0,5.0,44,0.00,,---,0.00,VWS V14.01,2013-04-08 21:14:00,
2013-04-08 17:19:00,72.2,49.1,30.00,WNW,288,5.0,5.0,44,0.00,,---,0.00,VWS V14.01,2013-04-08 21:19:00,
2013-04-08 17:24:00,71.9,48.8,30.00,WNW,289,5.0,5.0,44,0.00,,---,0.00,VWS V14.01,2013-04-08 21:24:00,
2013-04-08 17:29:00,71.8,48.7,30.00,NW,319,4.0,5.0,44,0.00,,---,0.00,VWS V14.01,2013-04-08 21:29:00,
2013-04-08 17:34:00,72.1,49.0,30.00,North,11,2.0,5.0,44,0.00,,---,0.00,VWS V14.01,2013-04-08 21:34:00,
2013-04-08 17:40:00,72.0,48.3,30.00,WNW,290,5.0,5.0,43,0.00,,---,0.00,VWS V14.01,2013-04-08 21:40:00,
2013-04-08 17:45:00,71.8,48.1,30.00,WNW,288,4.0,4.0,43,0.00,,---,0.00,VWS V14.01,2013-04-08 21:45:00,
2013-04-08 17:50:00,71.7,48.7,30.00,NNW,327,2.0,3.0,44,0.00,,---,0.00,VWS V14.01,2013-04-08 21:50:00,
2013-04-08 17:55:00,71.6,48.6,30.00,West,273,4.0,5.0,44,0.00,,---,0.00,VWS V14.01,2013-04-08 21:55:00,
2013-04-08 18:00:00,71.4,48.4,30.00,West,271,2.0,4.0,44,0.00,,---,0.00,VWS V14.01,2013-04-08 22:00:00,
2013-04-08 18:05:00,71.1,48.7,30.00,WNW,288,3.0,7.0,45,0.00,,---,0.00,VWS V14.01,2013-04-08 22:05:00,
2013-04-08 18:10:00,70.9,49.1,30.01,West,276,2.0,4.0,46,0.00,,---,0.00,VWS V14.01,2013-04-08 22:10:00,
2013-04-08 18:15:00,70.8,49.0,30.01,WNW,295,2.0,4.0,46,0.00,,---,0.00,VWS V14.01,2013-04-08 22:15:00,
2013-04-08 18:20:00,70.2,48.5,30.01,WNW,297,3.0,6.0,46,0.00,,---,0.00,VWS V14.01,2013-04-08 22:20:00,
2013-04-08 18:25:00,69.6,48.5,30.01,NW,318,4.0,5.0,47,0.00,,---,0.00,VWS V14.01,2013-04-08 22:25:00,
2013-04-08 18:30:00,69.0,48.5,30.01,NW,305,1.0,2.0,48,0.00,,---,0.00,VWS V14.01,2013-04-08 22:30:00,
2013-04-08 18:35:00,68.9,48.4,30.01,NW,323,1.0,3.0,48,0.00,,---,0.00,VWS V14.01,2013-04-08 22:35:00,
2013-04-08 18:40:00,68.5,48.1,30.01,NW,312,2.0,8.0,48,0.00,,---,0.00,VWS V14.01,2013-04-08 22:40:00,
2013-04-08 18:45:00,68.5,48.1,30.01,WNW,302,2.0,2.0,48,0.00,,---,0.00,VWS V14.01,2013-04-08 22:45:00,
2013-04-08 18:50:00,68.4,48.0,30.01,NW,313,2.0,6.0,48,0.00,,---,0.00,VWS V14.01,2013-04-08 22:50:00,
2013-04-08 18:55:00,68.2,48.3,30.02,WNW,293,6.0,6.0,49,0.00,,---,0.00,VWS V14.01,2013-04-08 22:55:00,
2013-04-08 19:00:00,68.0,48.2,30.02,NNW,346,1.0,1.0,49,0.00,,---,0.00,VWS V14.01,2013-04-08 23:00:00,
2013-04-08 19:05:00,67.8,48.0,30.02,WSW,248,2.0,4.0,49,0.00,,---,0.00,VWS V14.01,2013-04-08 23:05:00,
2013-04-08 19:10:00,67.5,48.8,30.02,NW,319,2.0,2.0,51,0.00,,---,0.00,VWS V14.01,2013-04-08 23:10:00,
2013-04-08 19:15:00,67.2,48.0,30.02,West,266,2.0,7.0,50,0.00,,---,0.00,VWS V14.01,2013-04-08 23:15:00,
2013-04-08 19:20:00,66.9,48.2,30.02,NW,311,0.0,1.0,51,0.00,,---,0.00,VWS V14.01,2013-04-08 23:20:00,
2013-04-08 19:25:00,66.6,47.9,30.02,NE,46,4.0,4.0,51,0.00,,---,0.00,VWS V14.01,2013-04-08 23:25:00,
2013-04-08 19:30:00,66.5,48.3,30.03,WSW,252,0.0,0.0,52,0.00,,---,0.00,VWS V14.01,2013-04-08 23:30:00,
2013-04-08 19:35:00,66.3,48.2,30.03,North,11,1.0,2.0,52,0.00,,---,0.00,VWS V14.01,2013-04-08 23:35:00,
2013-04-08 19:40:00,66.0,48.4,30.03,WNW,295,3.0,4.0,53,0.00,,---,0.00,VWS V14.01,2013-04-08 23:40:00,
2013-04-08 19:45:00,65.8,48.2,30.03,WNW,289,0.0,3.0,53,0.00,,---,0.00,VWS V14.01,2013-04-08 23:45:00,
2013-04-08 19:50:00,65.6,48.5,30.03,NNW,327,1.0,1.0,54,0.00,,---,0.00,VWS V14.01,2013-04-08 23:50:00,
2013-04-08 19:55:00,65.4,48.3,30.03,West,270,0.0,1.0,54,0.00,,---,0.00,VWS V14.01,2013-04-08 23:55:00,
2013-04-08 20:00:00,65.1,48.1,30.03,NE,56,2.0,2.0,54,0.00,,---,0.00,VWS V14.01,2013-04-09 00:00:00,
2013-04-08 20:05:00,64.8,48.3,30.03,East,82,2.0,2.0,55,0.00,,---,0.00,VWS V14.01,2013-04-09 00:05:00,
2013-04-08 20:10:00,64.5,48.5,30.04,WSW,252,1.0,4.0,56,0.00,,---,0.00,VWS V14.01,2013-04-09 00:10:00,
2013-04-08 20:15:00,64.6,48.6,30.04,SSE,150,0.0,1.0,56,0.00,,---,0.00,VWS V14.01,2013-04-09 00:15:00,
2013-04-08 20:20:00,64.4,48.4,30.04,NNE,32,0.0,2.0,56,0.00,,---,0.00,VWS V14.01,2013-04-09 00:20:00,
2013-04-08 20:25:00,64.2,48.2,30.04,WNW,290,0.0,0.0,56,0.00,,---,0.00,VWS V14.01,2013-04-09 00:25:00,
2013-04-08 20:30:00,63.7,48.2,30.04,East,81,1.0,1.0,57,0.00,,---,0.00,VWS V14.01,2013-04-09 00:30:00,
2013-04-08 20:35:00,63.4,48.4,30.04,ENE,63,2.0,2.0,58,0.00,,---,0.00,VWS V14.01,2013-04-09 00:35:00,
2013-04-08 20:40:00,63.2,48.7,30.05,NNW,333,1.0,1.0,59,0.00,,---,0.00,VWS V14.01,2013-04-09 00:40:00,
2013-04-08 20:45:00,63.2,48.7,30.05,NW,314,0.0,2.0,59,0.00,,---,0.00,VWS V14.01,2013-04-09 00:45:00,
2013-04-08 20:50:00,63.0,48.5,30.05,ENE,68,0.0,2.0,59,0.00,,---,0.00,VWS V14.01,2013-04-09 00:50:00,
2013-04-08 20:55:00,62.8,48.7,30.05,NW,308,1.0,1.0,60,0.00,,---,0.00,VWS V14.01,2013-04-09 00:55:00,
2013-04-08 21:00:00,62.5,48.9,30.05,NNE,32,2.0,3.0,61,0.00,,---,0.00,VWS V14.01,2013-04-09 01:00:00,
2013-04-08 21:05:00,62.5,48.9,30.05,NNE,12,1.0,2.0,61,0.00,,---,0.00,VWS V14.01,2013-04-09 01:05:00,
2013-04-08 21:10:00,62.5,48.9,30.04,East,85,3.0,3.0,61,0.00,,---,0.00,VWS V14.01,2013-04-09 01:10:00,
2013-04-08 21:15:00,62.7,49.1,30.03,WSW,252,1.0,5.0,61,0.00,,---,0.00,VWS V14.01,2013-04-09 01:15:00,
2013-04-08 21:20:00,62.9,49.3,30.04,NW,320,0.0,2.0,61,0.00,,---,0.00,VWS V14.01,2013-04-09 01:20:00,
2013-04-08 21:25:00,63.0,48.9,30.04,NE,44,1.0,2.0,60,0.00,,---,0.00,VWS V14.01,2013-04-09 01:25:00,
2013-04-08 21:30:00,63.1,49.0,30.04,ENE,58,1.0,2.0,60,0.00,,---,0.00,VWS V14.01,2013-04-09 01:30:00,
2013-04-08 21:35:00,63.2,49.1,30.05,ENE,64,1.0,3.0,60,0.00,,---,0.00,VWS V14.01,2013-04-09 01:35:00,
2013-04-08 21:40:00,62.8,49.2,30.06,East,89,0.0,2.0,61,0.00,,---,0.00,VWS V14.01,2013-04-09 01:40:00,
2013-04-08 21:45:00,62.6,49.0,30.06,North,358,1.0,2.0,61,0.00,,---,0.00,VWS V14.01,2013-04-09 01:45:00,
2013-04-08 21:50:00,62.3,49.1,30.05,NW,311,2.0,2.0,62,0.00,,---,0.00,VWS V14.01,2013-04-09 01:50:00,
2013-04-08 21:55:00,62.0,49.3,30.05,NNE,15,1.0,2.0,63,0.00,,---,0.00,VWS V14.01,2013-04-09 01:55:00,
2013-04-08 22:00:00,61.8,49.1,30.06,NE,41,1.0,2.0,63,0.00,,---,0.00,VWS V14.01,2013-04-09 02:00:00,
2013-04-08 22:05:00,61.7,49.4,30.06,ESE,117,2.0,3.0,64,0.00,,---,0.00,VWS V14.01,2013-04-09 02:05:00,
2013-04-08 22:10:00,62.2,49.5,30.06,NE,49,1.0,1.0,63,0.00,,---,0.00,VWS V14.01,2013-04-09 02:10:00,
2013-04-08 22:15:00,62.1,49.4,30.07,ENE,71,5.0,5.0,63,0.00,,---,0.00,VWS V14.01,2013-04-09 02:15:00,
2013-04-08 22:20:00,62.2,49.5,30.07,ESE,105,2.0,3.0,63,0.00,,---,0.00,VWS V14.01,2013-04-09 02:20:00,
2013-04-08 22:25:00,62.1,49.4,30.07,NNE,26,1.0,2.0,63,0.00,,---,0.00,VWS V14.01,2013-04-09 02:25:00,
2013-04-08 22:30:00,62.4,49.7,30.07,SSE,154,1.0,3.0,63,0.00,,---,0.00,VWS V14.01,2013-04-09 02:30:00,
2013-04-08 22:35:00,62.4,49.2,30.07,East,101,1.0,2.0,62,0.00,,---,0.00,VWS V14.01,2013-04-09 02:35:00,
2013-04-08 22:40:00,62.3,49.6,30.06,ENE,78,1.0,2.0,63,0.00,,---,0.00,VWS V14.01,2013-04-09 02:40:00,
2013-04-08 22:45:00,62.1,49.4,30.06,ENE,64,2.0,2.0,63,0.00,,---,0.00,VWS V14.01,2013-04-09 02:45:00,
2013-04-08 22:50:00,61.7,49.4,30.06,NNW,330,0.0,0.0,64,0.00,,---,0.00,VWS V14.01,2013-04-09 02:50:00,
2013-04-08 22:55:00,61.4,49.1,30.06,NNE,25,2.0,2.0,64,0.00,,---,0.00,VWS V14.01,2013-04-09 02:55:00,
2013-04-08 23:00:00,61.5,49.2,30.06,NNE,32,2.0,2.0,64,0.00,,---,0.00,VWS V14.01,2013-04-09 03:00:00,
2013-04-08 23:05:00,61.4,49.5,30.06,NE,36,1.0,1.0,65,0.00,,---,0.00,VWS V14.01,2013-04-09 03:05:00,
2013-04-08 23:10:00,60.8,49.4,30.06,NE,34,0.0,0.0,66,0.00,,---,0.00,VWS V14.01,2013-04-09 03:10:00,
2013-04-08 23:15:00,60.5,49.1,30.06,NNE,16,1.0,1.0,66,0.00,,---,0.00,VWS V14.01,2013-04-09 03:15:00,
2013-04-08 23:20:00,60.4,49.4,30.06,North,9,1.0,1.0,67,0.00,,---,0.00,VWS V14.01,2013-04-09 03:20:00,
2013-04-08 23:26:00,60.3,49.3,30.06,WSW,252,2.0,2.0,67,0.00,,---,0.00,VWS V14.01,2013-04-09 03:26:00,
2013-04-08 23:31:00,60.4,49.4,30.06,North,5,1.0,1.0,67,0.00,,---,0.00,VWS V14.01,2013-04-09 03:31:00,
2013-04-08 23:36:00,60.2,49.2,30.06,NW,323,1.0,1.0,67,0.00,,---,0.00,VWS V14.01,2013-04-09 03:36:00,
2013-04-08 23:41:00,60.0,49.0,30.06,ENE,69,3.0,3.0,67,0.00,,---,0.00,VWS V14.01,2013-04-09 03:41:00,
2013-04-08 23:46:00,60.2,49.2,30.06,NNW,332,1.0,1.0,67,0.00,,---,0.00,VWS V14.01,2013-04-09 03:46:00,
2013-04-08 23:51:00,60.3,49.3,30.06,NE,53,0.0,1.0,67,0.00,,---,0.00,VWS V14.01,2013-04-09 03:51:00,
2013-04-08 23:56:00,60.4,49.4,30.06,NNW,344,0.0,1.0,67,0.00,,---,0.00,VWS V14.01,2013-04-09 03:56:00,